STARLINK-2088 (47371 NORAD) Tracking and Keplerian Element Data

This shows tracking and keplerian element data for the satellite.

Feedback or suggestion? Click here.




ElementValue
Catalog47371
NameSTARLINK-2088
Epoch Orbit175
Epoch Day101.91668981
Epoch Year2021
RAAN189.6893
Inclination53.0575
Eccentricity8.52E-05
Argument of Perigee117.0806
Mean Anonmoly135.9915
Mean Motion15.06422726
Decay Rate-0.00036213
L11 47371U 21005Y 21101.91668981 -.00036213 00000-0 -24232-2 0 9995
L22 47371 53.0575 189.6893 0000852 117.0806 135.9915 15.06422726 1752

Live tracking and technical data element details for STARLINK-2088 (NORAD 47371). STARLINK-2088 can be tracked NOW for your location showing map with azimuth and elevation plus other details from your city location.

Track the satellite on the map from your city or location and see movement details for azimuth, elevation, latitude, longitude, range, height, and movement on the map or in text.







IsCatalogInMostPopularTable: catalog: 47371, numindb: 14
Update: records affected: 1



GetName: 47371 STARLINK-2088

Hit Count: updated at: Tue, 13 Apr 2021 05:15:39 GMT